Location: Zilina
(0.0000°N, 18.7333°E)
Time: 17:29:51
(UTC+02:00)

YAOGAN 6 - Pass Details

Date: 19 February 2019
Orbit: 466 x 505 km, 97.0° (Epoch: 19 October)

Event Time Altitude Azimuth Distance (km) Brightness Sun altitude
Rises 18:54:03 0° 161° (SSE) 2,509 6.1 -13.5°
Reaches altitude 10° 18:56:08 10° 155° (SSE) 1,634 5.1 -14.0°
Maximum altitude 18:59:33 50° 80° (E) 614 2.6 -14.9°
Drops below altitude 10° 19:02:59 10° 3° (N) 1,646 5.1 -15.7°
Sets 19:05:05 0° 358° (N) 2,529 6.1 -16.2°
